Flag for China Weather past 2 weeks in Beijing, Beijing Municipality, China

Now
77 °F

Fog.


Feels Like: 78 °F
Forecast: 74 / 79 °F
Wind: 1 mph from Southwest

Location: Beijing Airport

Current Time: Aug 2, 2015 at 10:15:37 AM

Latest Report: Aug 2, 2015 at 9:30 AM


Visibility: 3 mi

Pressure: 29.62 "Hg

Humidity: 89%

Dew point: 73 °F

Location of BeijingLocation

Historic Weather in Beijing — Graph

°F

Beijing temperature yesterday

Maximum temperature yesterday: 81 °F (at 10:00 AM)
Minimum temperature yesterday: 73 °F (at 11:00 PM)
Average temperature yesterday: 77 °F

Past Weeks' High & Low Weather Summary

 TemperatureHumidityPressure
High95 °F (Jul 26, 3:00 PM)100% (Jul 19, 1:00 AM)29.80 "Hg (Jul 19, 1:00 AM)
Low70 °F (Jul 19, 4:00 AM)38% (Jul 24, 3:30 PM)29.50 "Hg (Jul 24, 4:00 PM)
Average79 °F81%29.66 "Hg
* Reported Jul 18 9:00 AM — Aug 2 9:00 AM, Beijing, Weather by CustomWeather, © 2015

Note: Actual official high and low records may vary slightly from our data, if they occured in-between our weather recording intervals... More about our weather records

Advertising

Beijing weather history for previous 24 hours

 ConditionsComfort  
Time TempWeatherWind HumidityBarometerVisibility
9:00 AM
Sun, Aug 2
75 °FFog.1 mph89%29.65 "Hg2 mi
8:30 AM75 °FFog.3 mph94%29.62 "Hg2 mi
8:00 AM75 °FFog.1 mph94%29.62 "Hg2 mi
7:30 AM75 °FFog.1 mph94%29.65 "Hg2 mi
6:30 AM73 °FFog.1 mph94%29.65 "Hg2 mi
6:00 AM73 °FLight rain. Fog.1 mph94%29.65 "Hg2 mi
5:30 AM73 °FLight rain. Fog.1 mph100%29.65 "Hg1 mi
5:00 AM73 °FLight rain. Fog.No wind94%29.65 "Hg2 mi
4:30 AM73 °FLight rain. Fog.3 mph94%29.62 "Hg2 mi
4:00 AM73 °FLight rain. Fog.1 mph94%29.62 "Hg3 mi
3:30 AM73 °FLight rain. Fog.1 mph94%29.62 "Hg3 mi
3:00 AM73 °FLight rain. Fog.1 mph94%29.62 "Hg3 mi
2:30 AM73 °FLight rain. Passing clouds.3 mph94%29.62 "Hg4 mi
2:00 AM73 °FLight rain. Passing clouds.1 mph94%29.62 "Hg4 mi
1:30 AM73 °FClear.3 mph94%29.65 "Hg4 mi
1:00 AM75 °FClear.1 mph89%29.65 "Hg4 mi
12:30 AM75 °FClear.1 mph89%29.65 "Hg4 mi
12:00 AM75 °FPassing clouds.3 mph94%29.65 "Hg4 mi
11:00 PM
Sat, Aug 1
73 °FThunderstorms. Passing clouds.3 mph94%29.65 "HgN/A
10:30 PM75 °FThunderstorms. Fog.6 mph100%29.68 "Hg1 mi
10:00 PM75 °FThunderstorms. Fog.6 mph94%29.68 "Hg2 mi
9:30 PM77 °FFog.6 mph89%29.71 "Hg2 mi
9:00 PM75 °FFog.1 mph100%29.71 "Hg2 mi
8:30 PM77 °FFog.3 mph89%29.71 "Hg2 mi
8:00 PM75 °FFog.3 mph94%29.71 "Hg2 mi
7:30 PM75 °FFog.3 mph94%29.71 "Hg2 mi
7:00 PM77 °FFog.8 mph89%29.68 "Hg2 mi
6:30 PM77 °FFog.6 mph94%29.65 "Hg2 mi
6:00 PM79 °FFog.1 mph89%29.65 "Hg2 mi
5:30 PM77 °FFog.1 mph94%29.65 "Hg2 mi
5:00 PM79 °FFog.3 mph89%29.65 "Hg2 mi
4:30 PM79 °FFog.1 mph89%29.68 "Hg2 mi
4:00 PM79 °FFog.1 mph89%29.71 "Hg2 mi
3:30 PM79 °FFog.1 mph84%29.71 "Hg2 mi
3:00 PM79 °FFog.3 mph89%29.71 "Hg2 mi
2:30 PM77 °FFog.3 mph94%29.74 "Hg2 mi
2:00 PM77 °FLight rain. Fog.3 mph94%29.74 "Hg2 mi
1:30 PM77 °FFog.1 mph94%29.74 "Hg2 mi
12:30 PM79 °FSprinkles. Fog.1 mph89%29.74 "Hg2 mi
12:00 PM81 °FFog.1 mph84%29.77 "Hg2 mi
11:30 AM81 °FSprinkles. Fog.1 mph79%29.77 "Hg3 mi
11:00 AM81 °FFog.3 mph79%29.77 "Hg3 mi
10:30 AM81 °FFog.3 mph79%29.77 "Hg2 mi
10:00 AM81 °FFog.3 mph84%29.77 "Hg2 mi
Weather by CustomWeather, © 2015

See weather overviewHow to use our weather pages